Tracking 18980 objects as of 19-Feb-2018
HD Live streaming from Space Station
objects crossing your sky now

FENGYUN 1C DEB

Track FENGYUN 1C DEB now!
10-day predictions


NORAD ID: 32169
Int'l Code: 1999-025CTP
Perigee: 783.7 km
Apogee: 895.5 km
Inclination: 98.6 °
Period: 101.6 minutes
Semi major axis: 7210 km
RCS: 0.0019 m2 (small)
Launch date: May 10, 1999
Source: People's Republic of China (PRC)
Launch site: Taiyaun Space Center, China (TSC)

Note: This is SATELLITE DEBRIS
aabbcc
Your satellite tracking list
Your tracking list is empty




NASA's NSSDC Master Catalog

Two Line Element Set (TLE):
1 32169U 99025CTP 18049.34529384 +.00000957 +00000-0 +47451-3 0  9991
2 32169 098.5727 262.5176 0077566 209.7830 149.8920 14.17896843560139
Source of the keplerian elements: AFSPC